• Processing (Info)

  • MPEC 2006-C31 : 2006 CV

    The following Minor Planet Electronic Circular may be linked-to from your own Web pages, but must not otherwise be redistributed electronically.

    A form allowing access to any MPEC is at the bottom of this page.


    Read MPEC 2006-C30 Read MPEC 2006-C32


    M.P.E.C. 2006-C31                                Issued 2006 Feb. 4, 21:25 UT
    
         The Minor Planet Electronic Circulars contain information on unusual
             minor planets and routine data on comets.  They are published
       on behalf of Commission 20 of the International Astronomical Union by the
              Minor Planet Center, Smithsonian Astrophysical Observatory,
                              Cambridge, MA 02138, U.S.A.
    
                      Supported in part by the Brinson Foundation
                      Supported in part by the TABASGO Foundation
                 Prepared using the Tamkin Foundation Computer Network
    
                                  MPC@CFA.HARVARD.EDU
              URL http://cfa-www.harvard.edu/iau/mpc.html  ISSN 1523-6714
    
                                        2006 CV
    
    Observations:
         K06C00V* C2006 02 03.27291 09 29 24.39 +45 29 19.6          18.5 V EC031703
         K06C00V  C2006 02 03.28045 09 29 21.44 +45 29 17.0          18.4 V EC031703
         K06C00V  C2006 02 03.28800 09 29 18.56 +45 29 15.5          18.5 V EC031703
         K06C00V  C2006 02 03.29549 09 29 15.72 +45 29 13.8          18.6 V EC031703
         K06C00V  C2006 02 03.30355 09 29 12.48 +45 29 11.5          18.7 V EC031703
         K06C00V  C2006 02 03.31384 09 29 08.44 +45 29 08.5          18.3 V EC031703
         K06C00V  C2006 02 03.32429 09 29 04.34 +45 29 04.8          18.8 V EC031703
         K06C00V  C2006 02 03.33490 09 29 00.27 +45 29 02.5          18.7 V EC031703
         K06C00V  C2006 02 03.37377 09 28 45.08 +45 28 49.2          18.5 V EC031G96
         K06C00V  C2006 02 03.37431 09 28 44.86 +45 28 48.9          18.6 V EC031G96
         K06C00V  C2006 02 03.37485 09 28 44.68 +45 28 49.0          18.7 V EC031G96
         K06C00V  C2006 02 03.37538 09 28 44.47 +45 28 49.0          18.7 V EC031G96
         K06C00V  C2006 02 03.38411 09 28 41.06 +45 28 45.6          18.7 V EC031G96
         K06C00V  C2006 02 03.38519 09 28 40.67 +45 28 45.5          18.7 V EC031G96
         K06C00V  C2006 02 03.38629 09 28 40.18 +45 28 46.1          18.7 V EC031G96
         K06C00V  C2006 02 03.38735 09 28 39.86 +45 28 44.6          18.7 V EC031G96
         K06C00V  C2006 02 03.39009 09 28 38.76 +45 28 43.8          18.9 V EC031703
         K06C00V  C2006 02 03.39200 09 28 37.95 +45 28 44.2          18.4 V EC031703
         K06C00V  C2006 02 03.83398 09 25 53.26 +45 25 54.3          18.5   EC031130
         K06C00V  C2006 02 03.83731 09 25 52.00 +45 25 53.7          18.2   EC031130
         K06C00V  C2006 02 03.84063 09 25 50.72 +45 25 52.8          18.1   EC031130
         K06C00V  C2006 02 03.84395 09 25 49.44 +45 25 51.4          18.4   EC031130
         K06C00V  C2006 02 03.88290 09 25 34.01 +45 25 40.4          18.8 V EC031595
         K06C00V  C2006 02 03.89956 09 25 27.43 +45 25 34.6                 EC031595
         K06C00V  C2006 02 03.90789 09 25 24.14 +45 25 31.8                 EC031595
         K06C00V  C2006 02 04.17420 09 23 42.33 +45 23 45.1                 EC031711
         K06C00V  C2006 02 04.17967 09 23 40.14 +45 23 43.3          18.4 R EC031711
         K06C00V  C2006 02 04.18487 09 23 38.19 +45 23 41.5          18.5 R EC031711
         K06C00V  C2006 02 04.19686 09 23 33.43 +45 23 35.1          18.1 V EC031703
         K06C00V  C2006 02 04.20228 09 23 29.74 +45 23 32.8          18.5 R EC031932
         K06C00V  C2006 02 04.20409 09 23 30.56 +45 23 32.5          18.2 V EC031703
         K06C00V  C2006 02 04.21133 09 23 27.66 +45 23 29.8          18.4 V EC031703
         K06C00V  C2006 02 04.24482 09 23 12.56 +45 23 13.9          18.6 R EC031932
         K06C00V  C2006 02 04.24770 09 23 12.35 +45 23 13.6          18.4 R EC031734
         K06C00V  C2006 02 04.25044 09 23 10.30 +45 23 11.1          18.6 R EC031932
         K06C00V  C2006 02 04.25079 09 23 11.08 +45 23 12.3          19.1 R EC031734
         K06C00V  C2006 02 04.25389 09 23 09.81 +45 23 11.2          18.2 R EC031734
         K06C00V 5C2006 02 04.27338 09 23 02.87 +45 23 03.6          17.8 R EC031673
         K06C00V 5C2006 02 04.27818 09 23 00.95 +45 23 01.9                 EC031673
         K06C00V 5C2006 02 04.28287 09 22 59.06 +45 22 59.9                 EC031673
         K06C00V 5C2006 02 04.29074 09 22 55.86 +45 22 56.7                 EC031673
         K06C00V  C2006 02 04.31674 09 22 44.94 +45 22 46.8          18.5 R EC031854
         K06C00V  C2006 02 04.31768 09 22 44.60 +45 22 46.6          18.4 R EC031854
         K06C00V  C2006 02 04.31860 09 22 44.23 +45 22 45.9          18.3 R EC031854
    
    Observer details:
    130 Lumezzane.  Observers W. Marinello, M. Micheli, G. Pizzetti,
        A. Soffiantini.  Measurers W. Marinello, M. Micheli, G. Pizzetti.  0.40-m
        f/4.5 reflector + CCD.
    595 Farra d'Isonzo.  Observers G. Lombardi, L. Bittesini, E. Pettarin,
        F. Piani.  Measurer F. Piani.  0.40-m f/4.5 reflector + CCD.
    673 Table Mountain Observatory, Wrightwood.  Observer J. Young.  0.6-m f/16
        Cassegrain + CCD.
    703 Catalina Sky Survey.  Observer E. J. Christensen.  Measurers E. C. Beshore,
        E. J. Christensen, G. J. Garradd, A. D. Grauer, R. E. Hill, R. A. Kowalski,
        S. M. Larson, R. H. McNaught.  0.68-m Schmidt + CCD.
    711 McDonald Observatory.  Observer J. G. Ries.  0.76-m reflector + CCD
        + prime-focus corrector.
    734 Farpoint Observatory.  Observer D. Tibbets.  0.7-m reflector + CCD.
    854 Sabino Canyon Observatory, Tucson.  Observer J. E. McGaha.  0.36-m f/10.0
        Schmidt-Cassegrain + CCD.
    932 John J. McCarthy Obs., New Milford.  Observer J. Reynolds.  Measurer
        M. Robson.  0.4-m f/6.5 Schmidt-Cassegrain + CCD.
    G96 Mt. Lemmon Survey.  Observer R. Hill.  Measurers E. C. Beshore,
        E. J. Christensen, G. J. Garradd, A. D. Grauer, R. E. Hill, R. A. Kowalski,
        S. M. Larson, R. H. McNaught.  1.5-m reflector + CCD.
    
    Orbital elements:
    2006 CV                                                  Earth MOID = 0.0584 AU
    Epoch 2006 Mar. 6.0 TT = JDT 2453800.5                  MPC
    M 303.42094              (2000.0)            P               Q
    n   0.81072340     Peri.  284.97600     -0.22044930     +0.96084178
    a   1.1390800      Node   330.60291     -0.71057695     -0.27610983
    e   0.3772357      Incl.   20.00007     -0.66819346     -0.02337589
    P   1.22           H   19.8           G   0.15           U   9
    Residuals in seconds of arc
    060203 703  0.2-  0.1-    060203 G96  0.7+  0.0     060204 703  0.0   0.5+
    060203 703  0.4-  0.7-    060203 703  0.5+  0.1+    060204 703  0.0   0.4+
    060203 703  0.1+  0.2-    060203 703  0.2-  1.2+    060204 932  0.0   0.2-
    060203 703  0.9+  0.1+    060203 130  0.5-  0.6-    060204 734  0.2+  0.4-
    060203 703  0.1-  0.0     060203 130  0.1-  0.2-    060204 932  0.1+  0.4-
    060203 703  0.5-  0.0     060203 130  0.1+  0.1-    060204 734  0.0   0.4-
    060203 703  0.7-  0.6-    060203 130  0.3+  0.5-    060204 734  0.2-  0.2-
    060203 703  0.0   0.3+    060203 595  0.2-  0.2+    060204 673  0.1-  0.0
    060203 G96  0.1-  0.2-    060203 595  0.2-  0.0     060204 673  0.1+  0.3+
    060203 G96  0.2-  0.3-    060203 595  0.1-  0.1+    060204 673  0.2+  0.2+
    060203 G96  0.1+  0.0     060204 711  0.1-  0.2+    060204 673  0.1+  0.2+
    060203 G96  0.1+  0.2+    060204 711  0.2-  0.3+    060204 854  0.5-  0.1-
    060203 G96  0.1+  0.2-    060204 711  1.2+  0.3+    060204 854  0.0   0.1+
    060203 G96  0.4+  0.1+    060204 703  0.3-  0.6+    060204 854  0.0   0.1-
    060203 G96  0.2-  1.1+    060204 932  0.0   0.2-
    
    Ephemeris:
    2006 CV                  a,e,i = 1.14, 0.38, 20                  q = 0.7094
    Date    TT    R. A. (2000) Decl.     Delta      r     Elong.  Phase     V
    2006 02 04    09 24.80   +45 24.9    0.270    1.229   150.8    23.1    18.5
    2006 02 14    08 09.17   +41 26.7    0.218    1.172   144.3    29.5    18.1
    2006 02 24    06 49.09   +30 17.7    0.191    1.111   125.2    46.7    18.2
    2006 03 06    05 47.67   +14 35.6    0.191    1.048   101.6    68.0    18.7
    2006 03 16    05 04.51   -00 15.5    0.211    0.982    80.6    87.2    19.4
    2006 03 26    04 29.44   -11 57.7    0.241    0.917    63.8   102.6    20.3
    
    Timothy B. Spahr             (C) Copyright 2006 MPC           M.P.E.C. 2006-C31
    

    Read MPEC 2006-C30 Read MPEC 2006-C32


    MPEC number:

    Enter an MPEC number in one of the following forms:

    • 1997-B01 (the full form)
    • J97B01 (the packed version of the full form)
    • B01 (the abbreviated form)